Stündliche Wetter Centre

Heute, 23 Januar, Samstag

Zeit Temperatur Niederschläge Wind Luftdruck Luftfeuchtigkeit
00:00 +3°C° 0 mm 4 m/S 739 mmHg 89%
01:00 +1°C° 0 mm 4 m/S 739 mmHg 90%
02:00 +2°C° 0 mm 3 m/S 738 mmHg 91%
03:00 +1°C° 0 mm 3 m/S 738 mmHg 92%
04:00 +1°C° 0 mm 3 m/S 738 mmHg 93%
05:00 +1°C° 0 mm 3 m/S 737 mmHg 93%
06:00 +2°C° 0 mm 2 m/S 737 mmHg 94%
07:00 +2°C° 0.5 mm 2 m/S 736 mmHg 94%
08:00 +2°C° 0.5 mm 2 m/S 736 mmHg 94%
09:00 +3°C° 0.5 mm 2 m/S 736 mmHg 94%
10:00 +2°C° 1.3 mm 2 m/S 736 mmHg 95%
11:00 +1°C° 1.3 mm 3 m/S 736 mmHg 96%
12:00 +1°C° 1.3 mm 3 m/S 737 mmHg 96%
13:00 +2°C° 0.9 mm 3 m/S 737 mmHg 93%
14:00 +1°C° 0.9 mm 4 m/S 738 mmHg 89%
15:00 +2°C° 0.9 mm 5 m/S 738 mmHg 86%
16:00 +1°C° 0 mm 4 m/S 739 mmHg 87%
17:00 +1°C° 0 mm 3 m/S 739 mmHg 89%
18:00 +1°C° 0 mm 2 m/S 740 mmHg 91%
19:00 +1°C° 0 mm 2 m/S 740 mmHg 92%
20:00 +1°C° 0 mm 2 m/S 740 mmHg 92%
21:00 -1°C° 0 mm 2 m/S 741 mmHg 93%
22:00 -1°C° 0 mm 2 m/S 741 mmHg 93%
23:00 -1°C° 0 mm 2 m/S 741 mmHg 93%

Morgen, 24 Januar, Sonntag

Zeit Temperatur Niederschläge Wind Luftdruck Luftfeuchtigkeit
00:00 -1°C° 0 mm 2 m/S 741 mmHg 93%
01:00 -1°C° 0 mm 2 m/S 741 mmHg 93%
02:00 -1°C° 0 mm 2 m/S 741 mmHg 93%
03:00 -2°C° 0 mm 2 m/S 741 mmHg 93%
04:00 -1°C° 0 mm 2 m/S 741 mmHg 92%
05:00 -1°C° 0 mm 3 m/S 741 mmHg 91%
06:00 -2°C° 0 mm 4 m/S 741 mmHg 90%
07:00 -1°C° 1.1 mm 4 m/S 740 mmHg 93%
08:00 -1°C° 1.1 mm 5 m/S 740 mmHg 95%
09:00 -2°C° 1.1 mm 6 m/S 740 mmHg 97%
10:00 -1°C° 0.1 mm 6 m/S 740 mmHg 95%
11:00 +1°C° 0.1 mm 5 m/S 740 mmHg 92%
12:00 +2°C° 0.1 mm 5 m/S 739 mmHg 90%
13:00 +2°C° 0.2 mm 5 m/S 740 mmHg 86%
14:00 +2°C° 0.2 mm 6 m/S 740 mmHg 83%
15:00 +2°C° 0.2 mm 6 m/S 740 mmHg 79%
16:00 +1°C° 0.1 mm 6 m/S 740 mmHg 80%
17:00 +1°C° 0.1 mm 6 m/S 741 mmHg 82%
18:00 0°C° 0.1 mm 5 m/S 742 mmHg 83%
19:00 -1°C° 0 mm 5 m/S 743 mmHg 83%
20:00 -1°C° 0 mm 5 m/S 743 mmHg 83%
21:00 -1°C° 0 mm 5 m/S 744 mmHg 83%
22:00 -2°C° 0 mm 5 m/S 745 mmHg 84%
23:00 -2°C° 0 mm 4 m/S 746 mmHg 86%

übermorgen, 25 Januar, Montag

Zeit Temperatur Niederschläge Wind Luftdruck Luftfeuchtigkeit
00:00 -2°C° 0 mm 4 m/S 746 mmHg 87%
01:00 -3°C° 0 mm 4 m/S 747 mmHg 89%
02:00 -3°C° 0 mm 4 m/S 748 mmHg 91%
03:00 -2°C° 0 mm 3 m/S 748 mmHg 93%
04:00 -2°C° 0 mm 3 m/S 748 mmHg 92%
05:00 -2°C° 0 mm 3 m/S 749 mmHg 91%
06:00 -3°C° 0 mm 4 m/S 749 mmHg 91%
07:00 -2°C° 0 mm 4 m/S 749 mmHg 88%
08:00 -1°C° 0 mm 4 m/S 750 mmHg 86%
09:00 -1°C° 0 mm 4 m/S 750 mmHg 83%
10:00 0°C° 0 mm 5 m/S 750 mmHg 79%
11:00 +2°C° 0 mm 5 m/S 751 mmHg 76%
12:00 +3°C° 0 mm 5 m/S 751 mmHg 72%
13:00 +3°C° 0 mm 5 m/S 751 mmHg 75%
14:00 +4°C° 0 mm 4 m/S 751 mmHg 78%
15:00 +4°C° 0 mm 3 m/S 751 mmHg 81%
16:00 +3°C° 0 mm 3 m/S 751 mmHg 84%
17:00 +2°C° 0 mm 3 m/S 751 mmHg 87%
18:00 +3°C° 0 mm 2 m/S 752 mmHg 91%
19:00 +2°C° 0.1 mm 2 m/S 752 mmHg 91%
20:00 +1°C° 0.1 mm 3 m/S 753 mmHg 92%
21:00 +1°C° 0.1 mm 3 m/S 753 mmHg 93%
22:00 +1°C° 0 mm 3 m/S 753 mmHg 93%
23:00 0°C° 0 mm 3 m/S 753 mmHg 94%

26 Januar, Dienstag

Zeit Temperatur Niederschläge Wind Luftdruck Luftfeuchtigkeit
00:00 0°C° 0 mm 3 m/S 754 mmHg 95%
01:00 +1°C° 0 mm 2 m/S 754 mmHg 95%
02:00 +1°C° 0 mm 2 m/S 754 mmHg 96%
03:00 +1°C° 0 mm 2 m/S 754 mmHg 96%
04:00 +1°C° 0 mm 2 m/S 754 mmHg 96%
05:00 +1°C° 0 mm 2 m/S 754 mmHg 96%
06:00 +1°C° 0 mm 2 m/S 754 mmHg 96%
07:00 +1°C° 0 mm 2 m/S 754 mmHg 95%
08:00 +2°C° 0 mm 2 m/S 754 mmHg 93%
09:00 +1°C° 0 mm 3 m/S 754 mmHg 92%
10:00 +2°C° 0 mm 3 m/S 754 mmHg 91%
11:00 +3°C° 0 mm 3 m/S 754 mmHg 89%
12:00 +4°C° 0 mm 4 m/S 754 mmHg 88%
13:00 +5°C° 0 mm 4 m/S 753 mmHg 87%
14:00 +5°C° 0 mm 4 m/S 753 mmHg 87%
15:00 +5°C° 0 mm 5 m/S 752 mmHg 86%
16:00 +5°C° 0.9 mm 5 m/S 752 mmHg 88%
17:00 +5°C° 0.9 mm 5 m/S 752 mmHg 91%
18:00 +3°C° 0.9 mm 5 m/S 752 mmHg 93%
19:00 +3°C° 0.1 mm 5 m/S 752 mmHg 93%
20:00 +3°C° 0.1 mm 5 m/S 752 mmHg 93%
21:00 +5°C° 0.1 mm 5 m/S 752 mmHg 93%
22:00 +5°C° 0 mm 5 m/S 752 mmHg 94%
23:00 +6°C° 0 mm 5 m/S 752 mmHg 95%

27 Januar, Mittwoch

Zeit Temperatur Niederschläge Wind Luftdruck Luftfeuchtigkeit
00:00 +7°C° 0 mm 4 m/S 753 mmHg 96%
01:00 +6°C° 0 mm 4 m/S 753 mmHg 96%
02:00 +6°C° 0 mm 4 m/S 753 mmHg 96%
03:00 +5°C° 0 mm 3 m/S 753 mmHg 95%
04:00 +5°C° 0 mm 3 m/S 754 mmHg 95%
05:00 +5°C° 0 mm 3 m/S 754 mmHg 96%
06:00 +5°C° 0 mm 3 m/S 755 mmHg 96%
07:00 +5°C° 0 mm 3 m/S 755 mmHg 95%
08:00 +7°C° 0 mm 3 m/S 755 mmHg 94%
09:00 +7°C° 0 mm 3 m/S 756 mmHg 93%
10:00 +7°C° 0 mm 3 m/S 756 mmHg 91%
11:00 +8°C° 0 mm 3 m/S 756 mmHg 89%
12:00 +9°C° 0 mm 3 m/S 756 mmHg 87%
13:00 +8°C° 0 mm 4 m/S 756 mmHg 88%
14:00 +8°C° 0 mm 4 m/S 756 mmHg 88%
15:00 +8°C° 0 mm 4 m/S 755 mmHg 89%
16:00 +7°C° 0 mm 4 m/S 755 mmHg 90%
17:00 +7°C° 0 mm 4 m/S 755 mmHg 91%
18:00 +7°C° 0 mm 4 m/S 755 mmHg 92%
19:00 +7°C° 0.1 mm 4 m/S 754 mmHg 92%
20:00 +7°C° 0.1 mm 5 m/S 754 mmHg 92%
21:00 +8°C° 0.1 mm 5 m/S 754 mmHg 92%
22:00 +8°C° 1.7 mm 6 m/S 753 mmHg 93%
23:00 +8°C° 1.7 mm 7 m/S 752 mmHg 94%

28 Januar, Donnerstag

Zeit Temperatur Niederschläge Wind Luftdruck Luftfeuchtigkeit
00:00 +8°C° 1.7 mm 7 m/S 752 mmHg 94%
01:00 +9°C° 0.4 mm 7 m/S 752 mmHg 93%
02:00 +10°C° 0.4 mm 7 m/S 751 mmHg 91%
03:00 +10°C° 0.4 mm 7 m/S 751 mmHg 89%
04:00 +10°C° 0 mm 7 m/S 751 mmHg 89%
05:00 +9°C° 0 mm 6 m/S 751 mmHg 89%
06:00 +8°C° 0 mm 6 m/S 751 mmHg 88%
07:00 +8°C° 0 mm 6 m/S 751 mmHg 88%
08:00 +9°C° 0 mm 7 m/S 751 mmHg 87%
09:00 +9°C° 0 mm 8 m/S 751 mmHg 87%
10:00 +9°C° 0.3 mm 8 m/S 751 mmHg 86%
11:00 +10°C° 0.3 mm 8 m/S 751 mmHg 85%
12:00 +10°C° 0.3 mm 9 m/S 751 mmHg 84%
13:00 +10°C° 0.1 mm 8 m/S 751 mmHg 80%
14:00 +11°C° 0.1 mm 7 m/S 751 mmHg 76%
15:00 +11°C° 0.1 mm 6 m/S 752 mmHg 72%
16:00 +10°C° 0.1 mm 6 m/S 752 mmHg 78%
17:00 +10°C° 0.1 mm 5 m/S 752 mmHg 84%
18:00 +10°C° 0.1 mm 4 m/S 753 mmHg 90%
Mehr zeigen

Wir brauchen deine Erlaubnis

Meteoprog und unser Service Anbieter werden persönliche Daten aufbewahren, so wie Cookies, Geräte Bezeichnung oder ähnliche Technologien von deinem Gerät und Prozess, so wie Persönliche Daten Inhalte und Werbungen, genauso wie social Media und den Verkehr zu analysieren.

  • Aufbewahrung und/oder Zugang zu deiner Geräte Informationen.

    Cookies, Geräte Bezeichnung oder andere Informationen, können aufbewahrt oder Zugang zu deinem Gerät erhalten, für den Grund, der oben angegeben wird.

  • Personalisierte Werbung und Inhalte, Messungen, Einblick in das Publikum und Produkt Entwicklung.

    Werbungen und Inhalte können personalisiert werden, basierend auf ein Profil. Mehr Daten können besser personalisierte Werbungen und Inhalte hinzufügen. Werbung und Inhalte können gezeigt und gemessen werden. Einblicke über das Publikum, welche die Werbung gesehen haben und den Inhalt, können abgeleitet werden. So wie Daten können genutzt werden, um es zu verbessern oder die Benutzer Erfahrung zu verbessern das System und die Software.

Wenn du “Ich stimme zu” klickst, erlaubst du uns, die Cookies zu benutzen die Geräte Bezeichnung, den Web oder ähnliche Technologien zu benutzen. Deine Settings, können in deinem Gerät bei deinem Browser geändert werden.

Für den bestimmten Zweck, berechtigten Interessen beruhen darauf, mehr als auf den Inhalt. Du kannst mehr darüber in unseren Privaten und Cookie Politik lesen.